Location: Leeds
(37.2390°N, 113.3580°W)
Time: 17:55:12
(UTC-06:00)

Daily predictions for brighter satellites

Satellite Brightness Start Highest point End
(mag) Time Altitude Azimuth Time Altitude Azimuth Time Altitude Azimuth
COSMOS 2406 3.2 20:09:36 10° NNW 20:15:23 78° ENE 20:21:04 10° SSE
RESURS DK-1 3.5 20:14:10 10° N 20:17:38 25° ENE 20:21:06 10° ESE
Cosmos 1934 Rocket 4.2 20:12:29 10° SSE 20:18:22 49° E 20:24:12 10° NNE
NOAA 12 4.2 20:13:03 10° SSE 20:18:22 86° WSW 20:23:43 10° NNW
Cosmos 192 4.4 20:18:37 10° NNW 20:23:34 85° WSW 20:28:28 10° SSE
Cosmos 1844 3.8 20:19:00 10° SSW 20:24:45 88° ESE 20:30:35 10° NNE
Cosmos 1812 Rocket 3.5 20:29:37 10° S 20:34:03 79° E 20:38:26 10° N
CZ-2D R/B 4.0 20:33:42 10° SE 20:37:11 33° ENE 20:40:41 10° N
GP-B 4.5 20:35:49 12° ESE 20:38:27 19° ENE 20:41:34 10° NNE
Cosmos 1821 Rocket 4.2 20:33:48 10° S 20:40:12 84° W 20:46:36 10° N
Resurs 01 Rocket 1.7 20:37:02 10° SSE 20:41:21 57° ENE 20:45:41 10° N
Spot 2 Rocket 3.6 20:36:41 10° SSE 20:41:39 56° ENE 20:46:39 10° N
Cosmos 1805 3.9 20:39:03 10° SSE 20:42:33 33° E 20:46:05 10° NNE
Cosmos 1437 Rocket 3.8 20:43:40 10° SSW 20:47:33 50° WNW 20:51:30 10° N
USA 215 3.5 20:43:12 10° NE 20:49:28 47° SE 20:55:40 10° SSW
Delta 2 Rocket 3.7 20:45:42 10° W 20:50:25 60° SSW 20:53:08 21° ESE
SJ-6B 3.9 20:48:07 10° S 20:51:42 44° W 20:55:17 10° NNW
ALOS 2.7 20:48:13 10° S 20:52:51 67° W 20:57:31 10° NNW
Meteor 1-22 Rocket 4.5 20:48:24 10° SSW 20:54:10 80° W 21:00:11 10° N
CZ-4B DEB 4.3 20:55:19 19° ENE 20:55:19 19° ENE 20:57:09 10° NNE
Cosmos 990 Rocket 4.5 20:49:53 10° SSW 20:55:05 64° WNW 21:00:19 10° NNE
SAR-Lupe-4 4.1 20:54:47 22° SE 20:56:32 37° ENE 20:59:52 10° N
CZ-3 Stage 3 4.1 19:59:35 10° WSW 20:57:34 67° S 21:03:52 21° ESE
Cosmos 1605 Rocket 3.9 20:51:58 10° S 20:58:09 73° E 21:04:30 10° N
Helios 1B rocket 2.7 20:55:07 10° NNE 20:59:04 43° E 21:02:59 10° S
Envisat 3.8 20:57:27 21° ESE 20:59:43 30° ENE 21:04:06 10° N
BREEZE-M DEB (TANK) 3.0 20:57:54 10° SSW 21:00:45 44° SE 21:08:24 10° ENE
Yuri Rocket 4.4 20:57:52 10° WSW 21:01:17 24° S 21:03:03 18° SSE
Helios 1A 3.3 21:00:31 21° SE 21:02:58 44° ENE 21:06:57 10° N
In-Cosmos 22 4.0 20:59:15 10° N 21:04:34 74° E 21:09:49 10° SSE
Cosmos 1125 Rocket 3.6 21:01:12 10° S 21:06:12 51° ESE 21:11:14 10° NNE
Lacrosse 4 Rocket 4.1 21:03:46 10° WSW 21:06:50 20° NW 21:09:55 10° N
Cosmos-2242 3.9 21:10:06 28° ENE 21:10:06 28° ENE 21:13:12 10° NNE
Cosmos 2344 4.1 21:03:43 10° SW 21:11:18 63° NW 21:19:43 10° NNE
Cosmos 1758 3.1 21:09:47 10° S 21:13:43 72° E 21:17:42 10° NNE
Cosmos 2123 Rocket 4.1 21:07:26 10° N 21:13:46 78° W 21:20:01 10° S
Geosat 4.2 21:10:54 10° NNE 21:15:55 72° WNW 21:20:55 10° SW
SAR-Lupe-1 4.0 21:15:11 43° SE 21:16:03 58° ENE 21:19:35 10° N
Cosmos 2278 Rocket 2.7 21:11:14 10° SW 21:16:51 61° WNW 21:22:28 10° NNE
Spot 1 4.2 21:13:50 20° SSE 21:16:58 70° ENE 21:21:47 10° N
Cosmos 1833 Rocket 3.4 21:12:19 10° N 21:17:23 33° ENE 21:18:39 30° E
Lacrosse 5 2.9 21:14:28 10° WSW 21:19:20 45° NW 21:24:13 10° NNE
H-2A R/B 3.9 21:16:09 10° S 21:19:50 44° W 21:23:37 10° NNW
SL-27 R/B 3.7 21:18:01 10° NNW 21:21:26 43° WSW 21:24:31 12° S
Cosmos 1953 2.2 21:19:07 10° S 21:23:11 87° E 21:27:16 10° N
ERS-1 Rocket 4.0 21:23:28 27° ENE 21:23:28 27° ENE 21:27:31 10° NNE
Meteor 1-4 Rocket 2.3 21:19:56 10° S 21:23:24 89° W 21:26:54 10° N
Cosmos 1939 Rocket 3.5 21:24:03 38° ENE 21:24:03 38° ENE 21:27:42 10° N
Resurs 1-3 4.4 21:22:11 10° S 21:26:26 50° W 21:30:43 10° NNW
Meteor 1-29 2.8 21:23:08 10° NNE 21:26:36 78° E 21:27:30 47° S
Cosmos 2061 Rocket 4.3 21:23:18 21° SSE 21:27:10 44° E 21:33:11 10° NNE
Cosmos 1544 3.7 21:24:03 10° SSW 21:27:37 57° W 21:31:14 10° N
Cosmos 1153 Rocket 4.5 21:22:31 10° S 21:28:55 87° E 21:35:22 10° N
COSMOS 2487 3.9 21:26:04 10° N 21:28:08 26° NNE 21:28:08 26° NNE
Cosmos 2297 3.6 21:24:42 10° SSW 21:30:22 78° ESE 21:36:08 10° NNE
SeaSat 1 4.3 21:28:39 10° SSW 21:32:51 28° WSW 21:37:04 10° NW
Timation 2 Rocket 4.3 21:27:41 10° N 21:33:42 43° ENE 21:34:55 39° E
Cosmos 1818 3.6 21:29:26 10° NNW 21:34:52 63° ENE 21:36:09 48° ESE
ATLAS 5 CENTAUR R/B 2.3 21:32:00 10° SSW 21:35:09 38° SSE 21:35:09 38° SSE
Tiangong 1 2.8 21:41:20 10° WNW 21:43:02 29° W 21:43:02 29° W
Cosmos 1269 Rocket 3.9 21:41:36 10° NNW 21:46:54 76° ENE 21:47:43 62° SE
Cosmos 1408 Rocket 3.4 21:42:50 10° N 21:47:19 86° E 21:47:32 81° SSE
Lacrosse 5 rocket 3.4 21:44:58 10° N 21:46:35 15° NNE 21:46:35 15° NNE
Cosmos 1271 Rocket 4.3 21:49:53 27° NNE 21:49:53 27° NNE 21:51:48 10° NNE
Cosmos 2082 Rocket 2.1 21:43:30 10° NNW 21:49:12 68° ENE 21:49:57 61° ESE
Cosmos 1459 Rocket 3.8 21:49:24 11° S 21:55:30 82° E 22:01:43 10° N
Cosmos 2173 Rocket 3.8 21:54:34 21° S 21:58:55 85° E 22:05:10 10° N
Cosmos 1867 4.2 22:02:40 10° SW 22:07:58 54° WNW 22:13:21 10° NNE
Cosmos 1674 4.4 22:10:23 10° NNW 22:12:51 32° NW 22:12:51 32° NW
CZ-3B DEB 4.4 22:11:32 10° W 22:18:18 23° NW 22:22:15 10° NNE
Cosmos 2016 Rocket 4.0 22:30:07 74° W 22:30:18 75° W 22:36:29 10° N
USA 215 4.0 22:26:12 10° NE 22:32:25 48° NW 22:38:36 10° WSW
H-2A R/B 4.1 22:35:56 19° NNE 22:35:56 19° NNE 22:37:36 10° N
Cosmos 1833 Rocket 4.3 22:56:19 10° NW 23:00:23 30° W 23:00:23 30° W
USA 267 4.0 23:04:45 46° N 23:04:45 46° N 23:09:33 10° NW
